Regional Weather Roundup
Issued by NWS

Home | Current Version | Previous Version | Text Only | Print | Product List | Glossary On
Versions: 1 2 3 4 5 6 7 8 9 10 11 12 13 14 15 16 17 18 19 20 21 22 23 24 25 26 27 28 29 30 31 32 33 34 35 36 37 38 39 40 41 42 43 44 45 46 47 48 49 50
000
ASUS43 KMKX 050300
RWRWI

WISCONSIN REGIONAL WEATHER ROUNDUP
NATIONAL WEATHER SERVICE MILWAUKEE/SULLIVAN WI
1000 PM CDT WED MAY 04 2016

NOTE: "FAIR" INDICATES FEW OR NO CLOUDS BELOW 12,000 FEET WITH NO
SIGNIFICANT WEATHER AND/OR OBSTRUCTIONS TO VISIBILITY.

WIZ001-002-006>008-014>016-023>028-050400-
NORTHWEST WISCONSIN

CITY           SKY/WX    TMP DP  RH WIND       PRES   REMARKS
SUPERIOR ARPT  CLEAR     39  32  75 E5        30.01R
ASHLAND        CLEAR     37  35  92 NE3       30.01R
HAYWARD        CLEAR     40  28  62 CALM      30.00R
SIREN          CLEAR     46  25  43 CALM      29.99R
CUMBERLAND     CLEAR     48  25  40 E5        29.98R
RICE LAKE      CLEAR     47  27  45 NE5       30.00R
CHETEK         CLEAR     51  28  41 NE5       29.99R
LADYSMITH      CLEAR     45  29  55 NE5       30.01R
EAU CLAIRE     NOT AVBL
MENOMONIE      CLEAR     51  22  32 NE7       29.98R
NEW RICHMOND   CLEAR     48  29  47 CALM      29.98R
OSCEOLA        CLEAR     50  26  39 CALM      30.00R
$$

WIZ003>005-009-010-017-018-050400-
NORTH CENTRAL WISCONSIN

CITY           SKY/WX    TMP DP  RH WIND       PRES   REMARKS
MANITOWISH WTR CLEAR     35  33  92 CALM      29.99R
ARBOR VITAE    CLEAR     40  32  71 N3        29.98R
WOODRUFF       CLEAR     40  32  71 N3        29.98R
RHINELANDER    CLEAR     40  30  67 CALM      29.98R
EAGLE RIVER    CLEAR     34  29  82 N3        29.97R
LAND O LAKES   CLEAR     33  31  92 CALM      29.99R
PHILLIPS       CLEAR     40  30  66 N3        29.98R
TOMAHAWK       CLEAR     41  31  67 CALM      29.98R
MEDFORD        CLEAR     42  31  64 N6        29.97R
MERRILL        CLEAR     43  32  64 N6        29.98R
$$

WIZ029-030-035-036-043>047-050400-
CENTRAL WISCONSIN

CITY           SKY/WX    TMP DP  RH WIND       PRES   REMARKS
WAUSAU         CLEAR     47  31  53 N7        29.95R
MOSINEE        CLEAR     45  32  61 N7        29.97R
MARSHFIELD     CLEAR     47  31  53 N6        29.96R
STEVENS POINT  CLEAR     44  31  58 N6        29.97R
WAUPACA        CLEAR     48  32  53 N6        29.95R
WAUTOMA        CLEAR     47  32  56 N8        29.95R
WISC RAPIDS    CLEAR     47  30  51 NE8       29.97R
CAMP DOUGLAS   NOT AVBL
$$

WIZ011>013-019>022-031-037>040-048>050-050400-
NORTHEAST WISCONSIN

CITY           SKY/WX    TMP DP  RH WIND       PRES   REMARKS
ANTIGO         CLEAR     40  32  73 N9        29.96R WCI  34
SHAWANO        CLEAR     46  34  63 NE12      29.96R
OCONTO         PTCLDY    41  32  70 N8        29.96R
STURGEON BAY   CLEAR     39  28  65 N20G25    29.97R WCI  30
GREEN BAY      CLEAR     43  32  65 N14       29.96R
MANITOWOC      NOT AVBL
APPLETON       CLEAR     43  30  61 N15       29.93R
CLINTONVILLE   CLEAR     43  32  65 NE8       29.96R
OSHKOSH        CLEAR     46  33  60 NE17G25   29.94R
$$

WIZ032>034-041-042-053>061-050400-
SOUTHWEST WISCONSIN

CITY           SKY/WX    TMP DP  RH WIND       PRES   REMARKS
LA CROSSE      CLEAR     55  23  28 N8        29.95R
SPARTA         CLEAR     51  27  38 NE6       29.97R
VIROQUA        CLEAR     47  25  41 N7        29.94R
BOSCOBEL       PTCLDY    54  23  30 NE6       29.94R
PRAIRIE DU CHI CLEAR     54  22  28 N7        29.92R
PLATTEVILLE    CLEAR     49  30  46 N12       29.91R
$$

WIZ056-057-062-063-064-067-068-050400-
SOUTH CENTRAL WISCONSIN

CITY           SKY/WX    TMP DP  RH WIND       PRES   REMARKS
REEDSBURG      CLEAR     50  33  51 N10       29.93R
BARABOO/DELLS  CLEAR     49  31  49 N8        29.93R
LONE ROCK      NOT AVBL
MINERAL POINT  CLEAR     52  23  32 N6        29.92R
MADISON        PTCLDY    47  34  60 N5        29.91R
MIDDLETON      CLEAR     48  36  64 N8        29.92R
WATERTOWN      PTCLDY    45  37  71 NE7       29.91R
MONROE         CLEAR     48  36  61 N15       29.90R
JANESVILLE     NOT AVBL
$$

WIZ051-052-058>065-066-070>072-050400-
SOUTHEAST WISCONSIN

CITY           SKY/WX    TMP DP  RH WIND       PRES   REMARKS
MILWAUKEE      PTCLDY    40  35  83 N16G23    29.91R WCI  31
WAUKESHA       CLEAR     37  34  87 E5        29.92R WCI  34
MILWAUKEE/TIMM CLEAR     39  32  75 N6        29.92R WCI  35
RACINE         CLEAR     41  34  76 N16       29.92R
BURLINGTON     CLEAR     40  34  77 NE7       29.90R
KENOSHA        CLEAR     41  34  76 N10       29.90R
FOND DU LAC    CLEAR     46  35  65 NE18      29.93R
SHEBOYGAN      CLEAR     41  33  73 N8        29.93R
WEST BEND      CLEAR     39  34  81 NE5       29.91R
JUNEAU         PTCLDY    45  35  67 N10       29.92R
$$

LSZ147-162-050400-
LAKE SUPERIOR

STATION/POSITION TIME  TEMP    WIND        PRES    WAVE
                       AIR SEA DIR/SP/G            HT/PER
                 (UTC) (F)     (DEG/KT/KT) (MB)    (FT/S)
W MID LAKE BUOY  0150   37 37   30/  2/  2 1017.2R   1/ 4
DEVILS ISLAND    0200   42     140/  5/  5 1016.9R
SAXON HARBOR     0200   39      CALM  /  2 1015.6
$$

LMZ867-665-643>646-050400-
LAKE MICHIGAN

STATION/POSITION TIME  TEMP    WIND        PRES    WAVE
                       AIR SEA DIR/SP/G            HT/PER
                 (UTC) (F)     (DEG/KT/KT) (MB)    (FT/S)
CHAMBERS ISLAND  0200   42     340/ 18/ 22 1014.6
N MID LAKE BUOY  0150   40 38  340/ 17/ 21 1012.9R   3/ 5
NORTHPORT PIER   0221   41     340/ 15/ 24 1013.9R
ALGOMA LAKESHORE 0200          350/ 13/ 17   N/A
KEWAUNEE LAKESHO 0200   42                 1012.8R
SHEBOYGAN LAKESH 0200   41      20/ 20/ 23 1013.6R
PORT WASHINGTON  0240   41      10/  5/ 10 1014.2R
S MID LAKE BUOY  0150   41 40   10/ 27/ 33 1009.6R   9/ 8
KENOSHA   LAKESH 0200   43      10/ 23/ 26 1011.9R
$$

TC  - TEMPERATURE IN CELSIUS
VSB - VISIBILITY IN STATUTE MILES
WCI - WIND CHILL INDEX
HX  - HEAT INDEX





USA.gov is the U.S. government's official web portal to all federal, state and local government web resources and services.